Content
SEND FEEDBACK

Daily
Averages
Monthly
Summary
United States of America

BOX ELDER, SOUTH DAKOTA


Home > North America > United States > South Dakota
Elevation: 3170 feet     Latitude: 44 09N     Longitude: 103 06W

WEATHER
 
SELECT A DAY
Number of Records: 208,998;   Date Range: 1/1/95 - 11/25/14
 
SHARE

PRINT THIS DATA

[ ← Previous Day ]
WEATHER ALMANAC - FEBRUARY 1, 2013
[ Next Day → ]
[ °C ]   °F
Weather ElementAverageHighLow
Temperature30.7 °F40.1 °F (11:55 am)11.1 °F (1:55 am)
Dewpoint24 °F32.7 °F (1:55 pm)4.5 °F (1:55 am)
Humidity76.2 %82 % (7:55 am)70 % (11:55 am)
Barometer30.10 in30.18 in (1:55 am)30.04 in (11:55 am)
Wind Speed10.9 mph21.9 mph (1:55 pm)
Wind Gust26.5 mph (2:55 pm)
Weather ElementAverage
Visibility10 mi
Wind DirectionWNW (289.6 °)

Weather ElementTotal
Precipitation---
Heating Degree Days39.4 (Base 65)
Averaged from 23 records on February 1, 2013
WEATHER CONDITIONS BREAKOUT
WIND DIRECTION BREAKOUT
WEATHER BY HOUR - FEBRUARY 1, 2013
[ °C ]   °F
Local TimeTemperatureDewpointHumidityBarometerVisibilityWind DirectionWind SpeedGust SpeedPrecipitationEventsConditions
1:55 AM11.1 °F4.5 °F75 %30.18 in10.0 miSSE (160°)4.6 mphOvercast
2:55 AM12.6 °F6.1 °F75 %30.16 in10.0 miSW (220°)5.8 mphOvercast
3:55 AM13.1 °F7.2 °F77 %30.13 in10.0 miWest (280°)6.9 mphScattered Clouds
4:55 AM15.3 °F9.9 °F79 %30.12 in10.0 miWest (260°)8.1 mphPartly Cloudy
5:55 AM20.7 °F15.4 °F80 %30.09 in10.0 miWest (260°)5.8 mphClear
6:55 AM24.3 °F19.2 °F81 %30.08 in10.0 miWSW (250°)4.6 mphOvercast
7:55 AM26.4 °F21.6 °F82 %30.06 in10.0 miWest (260°)6.9 mphScattered Clouds
8:55 AM27.7 °F22.6 °F81 %30.07 in10.0 miWest (270°)4.6 mphMostly Cloudy
9:55 AM38.7 °F30.2 °F72 %30.05 in10.0 miNW (320°)11.5 mphMostly Cloudy
10:55 AM39.7 °F30.9 °F71 %30.05 in10.0 miNNW (330°)11.5 mphOvercast
11:55 AM40.1 °F30.9 °F70 %30.04 in10.0 miNNW (330°)18.4 mphOvercast
12:55 PM40.1 °F31.3 °F71 %30.05 in10.0 miNNW (340°)20.7 mphOvercast
1:55 PM38.3 °F32.7 °F80 %30.06 in10.0 miNNW (330°)21.9 mphOvercast
2:55 PM37.6 °F31.6 °F79 %30.08 in10.0 miNNW (330°)19.6 mph26.5 mphMostly Cloudy
3:55 PM37.4 °F30.9 °F77 %30.09 in10.0 miNW (310°)12.7 mphMostly Cloudy
4:55 PM37.8 °F30.6 °F75 %30.10 in10.0 miNNW (340°)13.8 mphMostly Cloudy
5:55 PM35.4 °F30.2 °F81 %30.12 in10.0 miNW (310°)10.4 mphOvercast
6:55 PM36.3 °F29.3 °F76 %30.12 in10.0 miWNW (300°)11.5 mphOvercast
7:55 PM34.5 °F28.9 °F80 %30.12 in10.0 miNW (310°)5.8 mphOvercast
8:55 PM35.1 °F27.0 °F72 %30.12 in10.0 miSW (230°)8.1 mphOvercast
9:55 PM33.4 °F26.6 °F76 %30.13 in10.0 miWNW (300°)5.8 mphOvercast
10:55 PM36.5 °F27.7 °F70 %30.12 in10.0 miNW (310°)17.3 mphClear
11:55 PM35.1 °F27.3 °F73 %30.14 in10.0 miNW (310°)15.0 mphPartly Cloudy
Hourly data recorded from KRCA, located miles away from Box Elder, South Dakota







STORIES FROM OUR PARTNERS